Weather History for KLWS - January, 2012

Change the Weather History Date:

Friday, January 6, 2012

  Actual Average Record
Temperature  
Mean Temperature 31 °F 34 °F  
Max Temperature 37 °F 40 °F 60 °F (1923)
Min Temperature 24 °F 29 °F -8 °F (1974)
Degree Days  
Heating Degree Days 34 31  
Month to date heating degree days 151 186  
Since 1 July heating degree days 2247 2394  
Cooling Degree Days 0 0  
Month to date cooling degree days 0 0  
Year to date cooling degree days 0 0  
Moisture  
Dew Point 26 °F    
Average Humidity 78    
Maximum Humidity 85    
Minimum Humidity 70    
Precipitation  
Precipitation T in 0.03 in 2.32 in (1917)
Month to date precipitation T 0.21  
Year to date precipitation T 0.21  
Snow  
Snow T in 0.10 in 5.00 in (1965)
Month to date snowfall T 0.6  
Since 1 July snowfall 1.5 5.9  
Snow Depth 0.00 in    
Sea Level Pressure  
Sea Level Pressure 30.29 in    
Wind  
Wind Speed 2 mph (South)    
Max Wind Speed 8 mph    
Max Gust Speed 8 mph    
Visibility 10 miles    
Events      
T = Trace of Precipitation, MM = Missing Value Source: NWS Daily Summary

Daily Weather History Graph

Daily Weather History Graph

Search for Another Location

Airport or City:

Trip Planner

Search our weather history database for the weather conditions in past years. The results will help you decide how hot, cold, wet, or windy it might be!

Date:

Astronomy

Jan. 06, 2012 Rise Set
Actual Time 7:31 AM PST 4:16 PM PST
Civil Twilight 6:56 AM PST 4:51 PM PST
Nautical Twilight 6:18 AM PST 5:29 PM PST
Astronomical Twilight 5:42 AM PST 6:05 PM PST
Moon 2:09 PM PST (1/6) 5:16 AM PST (1/6)
Length of Visible Light 9h 54m
Length of Day
8h 45m
Waxing Gibbous, 94% of the Moon is Illuminated
Jan 6
Waxing Gibbous
Jan 8
Full
Jan 16
Last Quarter
Jan 22
New
Jan 30
First Quarter

Hourly Weather History & Observations

Time (PST) Temp. Windchill Dew Point Humidity Pressure Visibility Wind Dir Wind Speed Gust Speed Precip Events Conditions
12:56 AM 28.9 °F 22.8 °F 23.0 °F 78% 30.34 in 10.0 mi SE 5.8 mph - N/A   Clear
1:56 AM 28.4 °F 24.6 °F 21.2 °F 74% 30.31 in 10.0 mi South 3.5 mph - N/A   Clear
2:56 AM 30.0 °F - 25.0 °F 82% 30.35 in 10.0 mi Calm Calm - N/A   Clear
3:56 AM 26.1 °F - 21.9 °F 84% 30.34 in 10.0 mi Calm Calm - N/A   Clear
4:56 AM 27.0 °F 23.0 °F 21.9 °F 81% 30.33 in 10.0 mi SE 3.5 mph - N/A   Clear
5:56 AM 28.0 °F - 21.9 °F 78% 30.33 in 10.0 mi Calm Calm - N/A   Clear
6:56 AM 26.1 °F - 21.0 °F 81% 30.33 in 10.0 mi Calm Calm - N/A   Clear
7:56 AM 27.0 °F - 23.0 °F 85% 30.34 in 10.0 mi Calm Calm - N/A   Clear
8:56 AM 27.0 °F - 23.0 °F 85% 30.34 in 10.0 mi Calm Calm - N/A   Clear
9:56 AM 30.0 °F - 27.0 °F 88% 30.34 in 10.0 mi Calm Calm - N/A   Clear
10:56 AM 30.2 °F - 26.6 °F 86% 30.26 in 10.0 mi Calm Calm - N/A   Clear
11:56 AM 34.0 °F 31.0 °F 28.9 °F 82% 30.27 in 10.0 mi North 3.5 mph - N/A   Clear
12:56 PM 33.8 °F - 28.4 °F 81% 30.20 in 6.0 mi Calm Calm - N/A   Haze
1:56 PM 36.0 °F 33.3 °F 28.9 °F 76% 30.23 in 10.0 mi NNW 3.5 mph - N/A   Clear
2:56 PM 34.0 °F 31.0 °F 28.9 °F 82% 30.24 in 10.0 mi WNW 3.5 mph - N/A   Clear
3:56 PM 35.1 °F - 28.9 °F 78% 30.24 in 10.0 mi Calm Calm - N/A   Clear
4:56 PM 34.0 °F 31.0 °F 28.0 °F 79% 30.25 in 10.0 mi SSW 3.5 mph - N/A   Overcast
6:56 PM 34.0 °F - 28.0 °F 79% 30.24 in 10.0 mi Calm Calm - N/A   Overcast
7:56 PM 35.1 °F - 28.0 °F 76% 30.25 in 10.0 mi Calm Calm - N/A   Overcast
8:56 PM 34.0 °F - 28.0 °F 79% 30.26 in 10.0 mi Calm Calm - N/A   Overcast
9:56 PM 34.0 °F 29.8 °F 28.0 °F 79% 30.27 in 10.0 mi SE 4.6 mph - N/A   Overcast
10:56 PM 35.1 °F 32.2 °F 26.1 °F 70% 30.27 in 10.0 mi SSE 3.5 mph - N/A   Scattered Clouds
11:56 PM 35.1 °F 32.2 °F 26.1 °F 70% 30.28 in 10.0 mi South 3.5 mph - N/A   Partly Cloudy